EDT,Max TemperatureF,Mean TemperatureF,Min TemperatureF,Max Dew PointF,MeanDew PointF,Min DewpointF,Max Humidity, Mean Humidity, Min Humidity, Max Sea Level PressureIn, Mean Sea Level PressureIn, Min Sea Level PressureIn, Max VisibilityMiles, Mean VisibilityMiles, Min VisibilityMiles, Max Wind SpeedMPH, Mean Wind SpeedMPH, Max Gust SpeedMPH,PrecipitationIn, CloudCover, Events, WindDirDegrees
2013-6-1,69,58,46,61,53,43,94,84,68,29.72,29.66,29.62,10,9,2,10,4,21,0.70,5,Thunderstorm,131
2013-6-2,57,49,41,43,37,36,87,69,44,30.03,29.88,29.70,10,10,10,18,12,33,0.03,7,,346
2013-6-3,62,48,33,43,35,28,93,62,36,30.14,30.05,30.02,10,10,2,16,5,21,0.00,1,,323
2013-6-4,59,46,33,43,32,25,87,57,27,30.24,30.20,30.15,10,10,8,10,2,,0.00,3,,182
2013-6-5,57,52,48,46,43,37,87,71,58,30.20,30.16,30.09,10,10,8,14,4,,0.03,8,,79
2013-6-6,64,56,48,43,40,30,82,58,30,30.09,30.04,30.00,10,10,10,13,6,17,0.04,8,,35
2013-6-7,73,58,44,45,39,34,82,51,23,30.02,29.98,29.93,10,10,10,13,5,16,0.00,3,,343
2013-6-8,71,58,44,46,42,37,87,59,31,30.05,29.99,29.94,10,10,10,14,3,20,0.00,2,,206
2013-6-9,71,55,39,52,46,37,93,66,43,30.11,30.04,29.96,10,10,7,14,4,20,0.00,3,,86
2013-6-10,68,62,57,55,51,46,88,67,59,29.95,29.87,29.82,10,10,9,12,8,,0.00,2,,104
2013-6-11,71,62,55,59,55,52,94,84,64,29.89,29.85,29.81,10,6,0,10,4,,0.00,5,,127
2013-6-12,71,58,46,57,51,43,94,71,43,29.92,29.86,29.79,10,8,0,12,3,,0.00,2,,176
2013-6-13,64,58,53,48,47,43,77,64,52,30.08,29.96,29.79,10,10,10,20,9,30,0.00,2,,345
2013-6-14,68,55,42,45,39,28,81,53,24,30.18,30.11,30.04,10,10,7,13,5,,0.00,0,,327
2013-6-15,64,57,50,54,49,43,82,72,55,30.02,29.94,29.80,10,10,8,9,2,,0.01,6,,159
2013-6-16,82,70,57,59,53,46,94,66,30,29.88,29.79,29.74,10,8,0,20,7,26,0.03,4,,295
2013-6-17,62,54,46,52,47,37,82,69,55,30.07,29.95,29.84,10,10,10,13,5,16,0.00,4,,6
2013-6-18,66,52,39,45,38,34,87,58,32,30.16,30.12,30.07,10,10,10,15,6,17,0.00,0,,54
2013-6-19,68,52,35,48,42,32,87,65,45,30.18,30.12,30.07,10,10,10,15,5,20,0.00,0,,189
2013-6-20,68,59,50,55,51,45,82,67,59,30.14,30.10,30.07,10,10,6,12,6,17,0.00,2,Thunderstorm,182
2013-6-21,64,62,59,61,56,52,88,82,72,30.14,30.00,29.90,10,7,0,14,6,18,0.11,6,Thunderstorm,110
2013-6-22,66,62,59,59,57,55,88,81,73,30.09,30.03,29.96,10,9,2,15,5,,0.00,7,,346
2013-6-23,69,64,59,64,59,55,88,81,68,30.01,29.90,29.83,10,7,2,15,5,17,0.01,4,,161
2013-6-24,78,69,60,66,63,57,94,77,65,29.94,29.87,29.80,10,7,0,20,6,24,0.00,2,,196
2013-6-25,80,73,66,68,64,61,88,75,61,29.83,29.81,29.78,10,10,5,16,5,21,0.00,2,,209
2013-6-26,73,65,57,64,62,55,94,78,69,29.81,29.78,29.73,10,8,0,13,3,20,0.22,2,Thunderstorm,144
2013-6-27,73,68,62,64,62,59,94,84,73,29.78,29.73,29.67,10,8,0,18,5,22,1.06,5,Thunderstorm,213
2013-6-28,68,64,60,61,58,55,88,83,78,29.69,29.64,29.61,10,10,1,13,5,18,0.01,7,,349
2013-6-29,60,59,59,54,54,54,82,80,77,29.87,29.75,29.67,10,10,5,15,8,23,0.00,4,,355
2013-6-30,75,64,53,45,43,39,58,43,31,30.07,29.98,29.88,10,10,3,15,7,21,0.00,0,,12